Regional Weather Roundup
Issued by NWS State College, PA

Home | Current Version | Previous Version | Graphics & Text | Print | Product List | Glossary Off
Versions: 1 2 3 4 5 6 7 8 9 10 11 12 13 14 15 16 17 18 19 20 21 22 23 24 25 26 27 28 29 30 31 32 33 34 35 36 37 38 39 40 41 42 43 44 45 46 47 48 49 50

000
ASUS41 KCTP 252010
RWRCTP

REGIONAL WEATHER ROUNDUP
NATIONAL WEATHER SERVICE STATE COLLEGE PA
400 PM EDT SUN JUN 25 2017

Note: "fair" indicates few or no clouds below 12,000 feet with no
significant weather and/or obstructions to visibility.

* = STATION THAT DOES NOT REPORT PRECIPITATION /E.G. RAIN...SNOW...ETC/
    THUNDER OR FOG.

PAZ002>004-007>009-013>016-020>023-029>032-252100-
WESTERN PENNSYLVANIA

CITY           SKY/WX    TMP DP  RH WIND       PRES   REMARKS
ERIE           SUNNY     69  49  48 W21G32    30.01R
MEADVILLE      MOSUNNY   71  52  50 W14G22    30.02R
FRANKLIN*      PTSUNNY   70  46  43 W15       30.02S
NEW CASTLE     FAIR      75  47  36 W17G29    30.02F
BEAVER COUNTY  NOT AVBL
BUTLER*        PTSUNNY   72  48  43 W13G18    30.04S
PITTSBURGH INT MOSUNNY   74  46  36 W10       30.04S
PITTSBURGH     PTSUNNY   74  44  34 W14G24    30.04F
INDIANA*       PTSUNNY   73  46  38 W13G21    30.06F
LATROBE        MOSUNNY   73  46  38 W16G24    30.06F
WASHINGTON CO* PTSUNNY   73  46  38 SW13G24   30.08F
$$

PAZ004>006-010>012-017>019-024>028-033>037-041-042-045-046-049>053-252100-
CENTRAL PENNSYLVANIA

CITY           SKY/WX    TMP DP  RH WIND       PRES   REMARKS
BRADFORD       SUNNY     69  46  43 SW15G26   29.99F
DUBOIS         MOSUNNY   70  46  42 W20G26    30.01F
CLEARFIELD     MOSUNNY   74  46  36 W13G23    30.01F
JOHNSTOWN      MOSUNNY   70  45  40 W18G30    30.07S
ALTOONA        MOSUNNY   72  49  44 W13       30.04F
STATE COLLEGE  MOSUNNY   75  52  43 W16       30.00F
WILLIAMSPORT   MOSUNNY   81  49  32 SW15G22   29.93F
SELINSGROVE    NOT AVBL
FT INDIANTOWN  SUNNY     81  52  36 W8        29.96F
CAPITAL CITY   MOSUNNY   83  49  30 NW12G17   29.96F
HARRISBURG     PTSUNNY   80  54  40 W8        29.95F
YORK           NOT AVBL
$$

PAZ038>040-043-044-047-048-054-055-060>062-067>071-252100-
EASTERN PENNSYLVANIA

CITY           SKY/WX    TMP DP  RH WIND       PRES   REMARKS
SCRANTON       SUNNY     79  49  34 SW17G24   29.94F
MOUNT POCONO   NOT AVBL
ALLENTOWN      NOT AVBL
QUAKERTOWN*    CLEAR     81  52  36 W10G17    29.96S
READING        MOSUNNY   81  53  37 W12       29.94F
LANCASTER      NOT AVBL
COATESVILLE    PTCLDY    81  57  44 W13       29.98F
POTTSTOWN      MOSUNNY   81  57  43 SW8       29.96F
BLUE BELL      PTSUNNY   81  57  44 W7G17     29.95F
DOYLESTOWN     MOSUNNY   83  57  41 VRB5      29.94F
WILLOW GROVE   NOT AVBL
NORTH PHILA    MOSUNNY   85  57  38 W10G20    29.94F
PHILADELPHIA   PTSUNNY   85  54  34 SW12      29.94F
$$



USA.gov is the U.S. government's official web portal to all federal, state and local government web resources and services.